This demonstration page uses our WeatherBlox Daily Observations layout. Learn more.

Left ArrowRight Arrow

41.55636, -103.73856

Hourly Observations for May 11, 2020

Temp ( °F °C ) Dew Point ( °F °C ) Humidity (%) Winds ( mph kmh ) Pressure ( in mb ) Visibility ( mi km ) Precip ( " mm )
12:58 am 00:58 Partly Cloudy 48 9 28 -2.3 45 45 E 18 30 30.30 1026 10 16 N/A
1:58 am 01:58 Mostly Cloudy 46 7.5 29 -1.7 52 52 E 18 30 30.30 1026 10 16 N/A
2:58 am 02:58 Mostly Clear 41 5.2 29 -1.4 63 63 E 13 20 30.32 1027 10 16 N/A
3:58 am 03:58 Clear 38 3.5 30 -1.3 71 71 ESE 13 20 30.32 1027 10 16 N/A
4:58 am 04:58 Mostly Cloudy 38 3.3 29 -1.7 70 70 ESE 13 20 30.32 1027 10 16 N/A
5:58 am 05:58 Mostly Cloudy 36 2.2 28 -2 74 74 E 9 15 30.32 1027 10 16 N/A
6:58 am 06:58 Clear 34 0.9 28 -2.2 80 80 ESE 10 17 30.30 1026 10 16 N/A
7:58 am 07:58 Clear 33 0.8 28 -2.1 81 81 ESE 12 19 30.29 1026 10 16 N/A
8:58 am 08:58 Clear 30 -0.9 27 -2.6 88 88 E 9 15 30.30 1026 10 16 N/A
9:58 am 09:58 Mostly Cloudy 33 0.3 31 -0.4 95 95 ESE 10 17 30.29 1026 10 16 N/A
10:58 am 10:58 Cloudy 33 0.7 30 -0.9 89 89 ESE 15 24 30.26 1025 10 16 N/A
11:58 am 11:58 Cloudy 33 0.4 30 -1.2 89 89 ESE 15 24 30.28 1026 10 16 N/A
12:58 pm 12:58 Mostly Cloudy 33 0.6 30 -1.2 88 88 ESE 15 24 30.27 1025 10 16 N/A
1:59 pm 13:59 Cloudy 35 1.4 29 -1.5 81 81 SE 20 31 30.28 1026 10 16 N/A
2:58 pm 14:58 Mostly Cloudy 35 1.7 28 -2.3 75 75 SE 18 30 30.28 1026 10 16 N/A
3:58 pm 15:58 Cloudy 35 1.9 28 -2.4 73 73 SE 20 31 30.28 1026 10 16 N/A
4:58 pm 16:58 Cloudy 36 2.1 28 -2.5 72 72 SE 21 33 30.25 1025 10 16 N/A
5:58 pm 17:58 Cloudy 36 2.3 29 -1.9 74 74 SE 14 22 30.24 1024 10 16 N/A
6:58 pm 18:58 Cloudy 35 1.9 30 -0.9 82 82 SSE 18 30 30.24 1024 10 16 N/A
7:58 pm 19:58 Cloudy 35 1.6 32 undefined 89 89 SE 15 24 30.22 1024 10 16 N/A
8:58 pm 20:58 Cloudy 35 1.6 33 0.4 92 92 SE 17 28 30.20 1023 10 16 N/A
9:58 pm 21:58 Cloudy 35 1.6 33 0.5 93 93 SE 15 24 30.17 1022 10 16 N/A
10:58 pm 22:58 Cloudy 35 1.9 34 1 94 94 SE 16 26 30.16 1021 10 16 N/A
11:58 pm 23:58 Cloudy 37 2.5 34 1 90 90 SSE 10 17 30.14 1021 10 16 N/A

Powered by AerisWeather